STARLINK-36618

Last updated on Sun Mar 15 2026 00:02:07 GMT+0000 (Coordinated Universal Time)

1 67847U 26033AC 26073.60693320 .00254335 32160-4 76131-3 0 9992 2 67847 42.9779 238.4778 0001347 277.1865 82.8857 15.91603793 5436
UTC large
Height (km)
Speed (km/s)
/
Latitude / Longitude
Inclination (degrees)
Orbital Period (minutes)
Azimuth
Elevation
Range (km)
Doppler Factor

Next 0 passes for location: London (51.5072 / 0.1276)

Sorry there are no passes over London.